Regional Weather Roundup
Issued by NWS

Home | Current Version | Previous Version | Graphics & Text | Print | Product List | Glossary On
Versions: 1 2 3 4 5 6 7 8 9 10 11 12 13 14 15 16 17 18 19 20 21 22 23 24 25 26 27 28 29 30 31 32 33 34 35 36 37 38 39 40 41 42 43 44 45 46 47 48 49 50
646
ASUS43 KBIS 301610
RWRND

NORTH DAKOTA REGIONAL WEATHER ROUNDUP
NATIONAL WEATHER SERVICE BISMARCK ND
1100 AM CDT THU MAR 30 2017

NOTE: "FAIR" INDICATES FEW OR NO CLOUDS BELOW 12,000 FEET WITH NO
SIGNIFICANT WEATHER AND/OR OBSTRUCTIONS TO VISIBILITY.


NDZ001>003-009>011-017-301700-
NORTHWEST NORTH DAKOTA

CITY           SKY/WX    TMP DP  RH WIND       PRES   REMARKS
WILLISTON      CLOUDY    51  39  63 E6        29.71S
MINOT          CLOUDY    48  37  65 S12       29.76R
MINOT AFB      MOSUNNY   47  38  71 S9        29.75R
$$

NDZ018>021-031>035-040>046-301700-
SOUTHWEST NORTH DAKOTA

CITY           SKY/WX    TMP DP  RH WIND       PRES   REMARKS
BISMARCK       FAIR      44  35  70 S17       29.84F
DICKINSON      CLOUDY    46  38  73 S12       29.72S
GARRISON         N/A     44  35  70 S9        29.77F
HETTINGER ARPT CLOUDY    43  35  73 SE14      29.77R
$$

NDZ004>008-012>016-024-026-027-054-301700-
NORTHEAST NORTH DAKOTA

CITY           SKY/WX    TMP DP  RH WIND       PRES   REMARKS
GRAND FORKS    MOSUNNY   48  41  76 S15       29.91F
GRND FRKS AFB  CLOUDY    48  38  68 S16       29.91S
DEVILS LAKE    CLOUDY    45  36  70 S17       29.86S
$$

NDZ022-023-025-028>030-036>039-047>053-301700-
SOUTHEAST NORTH DAKOTA

CITY           SKY/WX    TMP DP  RH WIND       PRES   REMARKS
FARGO          SUNNY     46  40  79 E6        29.93S
JAMESTOWN      CLOUDY    41  37  86 S13       29.88F
$$





USA.gov is the U.S. government's official web portal to all federal, state and local government web resources and services.